Tracking 35048 objects as of 19-Aug-2026
HD Live streaming from Space Station
objects crossing your sky now

SITRO-AIS-48

Track SITRO-AIS-48 now!
10-day predictions
SITRO-AIS-48 is classified as:


NORAD ID: 61771
Int'l Code: 2024-199AN
Launch date: November 4, 2024
Source: (TBD)
Launch site: VOSTOCHNY COSMODROME (VOSTO)

Uplink (MHz):
Downlink (MHz): 401.245
Beacon (MHz):
Mode: 2k4 GMSK_USP
Call sign: SC2370
Status: Active

Your satellite tracking list
Your tracking list is empty




NASA's NSSDC Master Catalog

Two Line Element Set (TLE):
1 61771U 24199AN  26230.85606932  .00056989  00000-0  60272-3 0  9996
2 61771  97.2800 108.4869 0008351  69.3894 290.8260 15.63957592144202
Source of the keplerian elements: AFSPC